This demonstration page uses our WeatherBlox Daily Observations layout. Learn more.

Left ArrowRight Arrow

39.51506, -84.39828

Hourly Observations for February 15, 2020

Temp ( °F °C ) Dew Point ( °F °C ) Humidity (%) Winds ( mph kmh ) Pressure ( in mb ) Visibility ( mi km ) Precip ( " mm )
12:15 am 00:15 Clear 13 -10.6 10 -12.2 88 88 Calm 30.6 1036 10 16.0934 0 0
12:35 am 00:35 Clear 13 -10.5 10 -12.4 86 86 Calm 30.59 1036 10 16.0934 0 0
12:55 am 00:55 Clear 13 -10.7 9 -12.9 84 84 Calm 30.59 1036 10 16.0934 0 0
1:15 am 01:15 Clear 13 -10.8 10 -12.2 90 90 Calm 30.59 1036 10 16.0934 0 0
1:35 am 01:35 Clear 12 -11 10 -12.2 91 91 Calm 30.59 1036 10 16.0934 0 0
1:55 am 01:55 Clear 12 -11.2 10 -12.5 90 90 Calm 30.59 1036 10 16.0934 0 0
2:15 am 02:15 Clear 12 -11.2 10 -12.2 92 92 Calm 30.59 1036 10 16.0934 0 0
2:35 am 02:35 Clear 11 -11.4 10 -12.5 92 92 Calm 30.58 1036 10 16.0934 0 0
2:55 am 02:55 Clear 11 -11.5 10 -12.5 92 92 Calm 30.58 1036 10 16.0934 0 0
3:15 am 03:15 Clear 11 -11.7 9 -12.8 92 92 Calm 30.58 1036 10 16.0934 0 0
3:35 am 03:35 Clear 10 -12.1 8 -13.3 91 91 Calm 30.56 1035 10 16.0934 0 0
3:55 am 03:55 Clear 11 -11.4 9 -12.7 90 90 Calm 30.56 1035 10 16.0934 0 0
4:15 am 04:15 Clear 12 -10.9 9 -12.8 86 86 Calm 30.56 1035 10 16.0934 0 0
4:35 am 04:35 Clear 12 -11.2 9 -12.6 90 90 Calm 30.56 1035 10 16.0934 0 0
4:55 am 04:55 Clear 15 -9.2 11 -11.8 82 82 SSE 5 7 30.55 1035 10 16.0934 0 0
5:15 am 05:15 Clear 15 -9.5 11 -11.9 83 83 Calm 30.55 1035 10 16.0934 0 0
5:35 am 05:35 Clear 13 -10.4 9 -12.6 84 84 Calm 30.56 1035 10 16.0934 0 0
5:55 am 05:55 Clear 11 -11.4 9 -12.8 90 90 Calm 30.55 1034 10 16.0934 0 0
6:15 am 06:15 Clear 10 -12 8 -13.4 89 89 WSW 3 6 30.53 1034 10 16.0934 0 0
6:35 am 06:35 Clear 11 -11.8 7 -13.8 85 85 Calm 30.53 1034 10 16.0934 0 0
6:55 am 06:55 Clear 11 -11.8 9 -13 91 91 SW 3 6 30.55 1035 10 16.0934 0 0
7:15 am 07:15 Clear 12 -11 10 -12.3 90 90 Calm 30.55 1034 10 16.0934 0 0
7:35 am 07:35 Sunny 12 -11.1 9 -12.8 87 87 Calm 30.54 1034 10 16.0934 0 0
7:55 am 07:55 Sunny 11 -11.6 9 -12.6 92 92 Calm 30.52 1033 10 16.0934 0 0
8:15 am 08:15 Sunny 14 -10 12 -11.2 91 91 Calm 30.53 1034 10 16.0934 0 0
8:35 am 08:35 Sunny 16 -9.1 12 -11 86 86 Calm 30.52 1034 10 16.0934 0 0
8:55 am 08:55 Sunny 18 -7.8 13 -10.3 82 82 S 7 11 30.52 1033 10 16.0934 0 0
9:15 am 09:15 Sunny 20 -6.8 14 -9.9 79 79 S 8 13 30.5 1033 10 16.0934 0 0
9:35 am 09:35 Sunny 21 -6 15 -9.5 77 77 SSE 8 13 30.49 1033 10 16.0934 0 0
9:55 am 09:55 Sunny 23 -4.9 16 -9.1 73 73 S 13 20 30.48 1032 10 16.0934 0 0
10:15 am 10:15 Sunny 24 -4.3 16 -8.9 71 71 S 13 20 30.47 1032 10 16.0934 0 0
10:35 am 10:35 Sunny 26 -3.3 16 -9 65 65 S 15 24 30.44 1031 10 16.0934 0 0
10:55 am 10:55 Sunny 28 -2.3 16 -8.9 61 61 S 14 22 30.42 1030 10 16.0934 0 0
11:15 am 11:15 Sunny 29 -1.4 15 -9.4 55 55 SSE 12 19 30.4 1029 10 16.0934 0 0
11:35 am 11:35 Mostly Cloudy 31 -0.7 14 -9.8 51 51 S 9 15 30.4 1029 10 16.0934 0 0
11:55 am 11:55 Mostly Cloudy 34 1 15 -9.6 45 45 S 13 20 30.37 1029 10 16.0934 0 0
12:15 pm 12:15 Partly Cloudy 34 1.1 13 -10.3 43 43 SW 17 28 30.38 1029 10 16.0934 0 0
12:35 pm 12:35 Partly Cloudy 35 1.5 14 -10.2 42 42 SSW 15 24 30.36 1028 10 16.0934 0 0
12:55 pm 12:55 Sunny 36 2 13 -10.5 39 39 S 18 30 30.35 1028 10 16.0934 0 0
1:15 pm 13:15 Partly Cloudy 36 2.4 14 -9.9 40 40 S 14 22 30.34 1027 10 16.0934 0 0
1:35 pm 13:35 Cloudy 36 2.3 13 -10.7 38 38 SSW 15 24 30.32 1027 10 16.0934 0 0
1:55 pm 13:55 Cloudy 37 2.8 14 -10 39 39 S 17 28 30.3 1026 10 16.0934 0 0
2:15 pm 14:15 Sunny 38 3.4 14 -10 37 37 S 15 24 30.28 1025 10 16.0934 0 0
2:35 pm 14:35 Sunny 39 3.9 14 -10 36 36 S 13 20 30.26 1025 10 16.0934 0 0
2:55 pm 14:55 Sunny 42 5.3 14 -9.9 33 33 S 13 20 30.24 1024 10 16.0934 0 0
3:15 pm 15:15 Sunny 41 5 13 -10.7 31 31 S 15 24 30.23 1024 10 16.0934 0 0
3:35 pm 15:35 Sunny 43 5.9 15 -9.3 33 33 S 14 22 30.23 1024 10 16.0934 0 0
3:55 pm 15:55 Sunny 44 6.6 13 -10.3 29 29 S 14 22 30.22 1023 10 16.0934 0 0
4:15 pm 16:15 Sunny 44 6.8 9 -12.6 24 24 SSW 16 26 30.22 1023 10 16.0934 0 0
4:35 pm 16:35 Mostly Cloudy 43 6.2 10 -12.1 26 26 S 14 22 30.2 1023 10 16.0934 0 0
4:55 pm 16:55 Cloudy 44 6.4 12 -11.3 27 27 S 16 26 30.19 1022 10 16.0934 0 0
5:15 pm 17:15 Partly Cloudy 44 6.4 12 -11 28 28 S 16 26 30.19 1022 10 16.0934 0 0
5:35 pm 17:35 Sunny 43 5.9 13 -10.3 30 30 S 15 24 30.19 1022 10 16.0934 0 0
5:55 pm 17:55 Sunny 42 5.7 14 -10.2 31 31 S 12 19 30.19 1022 10 16.0934 0 0
6:15 pm 18:15 Clear 41 5.1 15 -9.7 34 34 S 10 17 30.19 1022 10 16.0934 0 0
6:35 pm 18:35 Clear 40 4.4 15 -9.2 37 37 S 9 15 30.19 1022 10 16.0934 0 0
6:55 pm 18:55 Clear 38 3.4 17 -8.6 41 41 S 8 13 30.2 1023 10 16.0934 0 0
7:15 pm 19:15 Clear 39 3.8 16 -8.8 40 40 S 8 13 30.2 1023 10 16.0934 0 0
7:35 pm 19:35 Clear 39 3.7 16 -8.8 40 40 S 7 11 30.2 1023 10 16.0934 0 0
7:55 pm 19:55 Clear 39 4.1 15 -9.2 38 38 S 6 9 30.18 1022 10 16.0934 0 0
8:15 pm 20:15 Clear 40 4.2 16 -9.1 38 38 S 7 11 30.18 1022 10 16.0934 0 0
8:35 pm 20:35 Clear 39 3.7 16 -8.9 40 40 S 8 13 30.18 1022 10 16.0934 0 0
8:55 pm 20:55 Clear 38 3.4 17 -8.3 42 42 S 8 13 30.18 1022 10 16.0934 0 0
9:15 pm 21:15 Partly Cloudy 37 2.7 18 -7.9 46 46 SSW 7 11 30.18 1022 10 16.0934 0 0
9:35 pm 21:35 Cloudy 38 3.4 20 -6.6 48 48 S 6 9 30.19 1022 10 16.0934 0 0
9:55 pm 21:55 Cloudy 38 3.2 20 -6.6 49 49 SSW 6 9 30.19 1022 10 16.0934 0 0
10:15 pm 22:15 Cloudy 39 3.9 20 -6.7 46 46 SSW 7 11 30.17 1022 10 16.0934 0 0
10:35 pm 22:35 Cloudy 39 4.1 20 -6.4 47 47 SW 7 11 30.18 1022 10 16.0934 0 0
10:55 pm 22:55 Cloudy 39 4 21 -6.1 48 48 SSW 8 13 30.18 1022 10 16.0934 0 0
11:15 pm 23:15 Cloudy 39 4 21 -6.1 48 48 SW 7 11 30.18 1022 10 16.0934 0 0
11:35 pm 23:35 Cloudy 40 4.2 21 -6.1 47 47 SSW 9 15 30.18 1022 10 16.0934 0 0
11:55 pm 23:55 Cloudy 39 4 22 -5.8 49 49 SSW 9 15 30.18 1022 10 16.0934 0 0

Powered by AerisWeather